AB8YS Weather Reports


Display with metric or nautical units.
time (UTC)temp
F
wind
direction
speed
MPH
gust
MPH
rain 1hr
in
rain 24hr
in
rain mn
in
humidity
%
barometer
mb
20260906161525 76 115 0.0 7.0 0.00 0.00 0.00 63 1016.2
20260906160026 75 336 0.0 6.0 0.00 0.00 0.00 63 1016.3
20260906154522 75 344 0.0 5.0 0.00 0.00 0.00 62 1016.3
20260906153019 74 68 0.0 5.0 0.00 0.00 0.00 65 1016.2
20260906151526 74 49 2.0 7.0 0.00 0.00 0.00 65 1016.1
20260906150016 73 340 1.0 7.0 0.00 0.00 0.00 67 1016.1
20260906144512 73 1 1.0 7.0 0.00 0.00 0.00 69 1015.9
20260906143011 72 69 2.0 10.0 0.00 0.00 0.00 69 1015.9
20260906141510 71 65 2.0 7.0 0.00 0.00 0.00 71 1015.7
20260906140019 71 71 0.0 4.0 0.00 0.00 0.00 73 1016.0
20260906134506 70 114 2.0 8.0 0.00 0.00 0.00 72 1015.8
20260906133004 69 40 2.0 7.0 0.00 0.00 0.00 74 1015.7
20260906131503 69 70 1.0 6.0 0.00 0.00 0.00 76 1015.6
20260906130000 68 50 0.0 4.0 0.00 0.00 0.00 78 1015.4
20260906124558 66 75 1.0 4.0 0.00 0.00 0.00 81 1015.3
20260906123058 66 87 0.0 2.0 0.00 0.00 0.00 83 1015.2
20260906121601 66 47 0.0 2.0 0.00 0.00 0.00 83 1015.0
20260906120054 65 71 0.0 1.0 0.00 0.00 0.00 84 1014.8
20260906114600 66 97 0.0 1.0 0.00 0.00 0.00 84 1014.5
20260906113055 66 70 0.0 1.0 0.00 0.00 0.00 84 1014.2
20260906111547 66 84 0.0 2.0 0.00 0.00 0.00 85 1014.1
20260906110045 66 88 0.0 1.0 0.00 0.00 0.00 86 1014.0
20260906104545 65 53 0.0 3.0 0.00 0.00 0.00 86 1013.8
20260906103042 65 77 0.0 1.0 0.00 0.00 0.00 87 1013.6
20260906101542 65 72 0.0 1.0 0.00 0.00 0.00 88 1013.6
20260906100039 65 95 0.0 5.0 0.00 0.00 0.00 88 1013.5
20260906094540 65 70 0.0 1.0 0.00 0.00 0.00 89 1013.4
20260906093038 66 85 0.0 2.0 0.00 0.00 0.00 88 1013.3
20260906091537 66 54 0.0 2.0 0.00 0.00 0.00 89 1013.4
20260906090036 66 91 0.0 2.0 0.00 0.00 0.00 89 1013.3
20260906084535 66 51 0.0 3.0 0.00 0.00 0.00 89 1013.2
20260906083034 66 108 0.0 1.0 0.00 0.00 0.00 90 1013.1
20260906081542 66 94 0.0 1.0 0.00 0.00 0.00 92 1013.0
20260906080032 66 44 0.0 4.0 0.00 0.00 0.00 93 1012.9
20260906074531 67 68 0.0 1.0 0.00 0.00 0.00 93 1012.9
20260906073028 67 46 0.0 3.0 0.00 0.00 0.00 93 1012.9
20260906071527 67 46 0.0 5.0 0.00 0.00 0.00 93 1012.9
20260906070025 68 67 0.0 3.0 0.00 0.00 0.00 94 1013.0
20260906064524 68 59 1.0 5.0 0.00 0.00 0.00 94 1013.1
20260906063023 68 84 0.0 2.0 0.00 0.00 0.00 95 1013.1
20260906061521 68 64 0.0 3.0 0.00 0.00 0.00 95 1013.2
20260906060026 69 84 0.0 1.0 0.00 0.00 0.00 96 1013.2
20260906054516 69 93 0.0 3.0 0.00 0.00 0.00 96 1012.8
20260906053021 69 58 0.0 1.0 0.00 0.00 0.00 96 1012.7
20260906051515 70 55 0.0 1.0 0.00 0.00 0.00 95 1012.6
20260906050027 70 73 0.0 3.0 0.00 0.00 0.00 96 1012.4
20260906044506 71 86 0.0 2.0 0.00 0.00 0.00 96 1012.3
20260906043003 71 80 0.0 1.0 0.00 0.00 0.00 96 1012.2
20260906041502 72 47 0.0 4.0 0.00 0.00 0.00 96 1011.9
20260906040058 72 70 0.0 1.0 0.00 0.00 0.00 97 1012.0
20260906034558 72 59 0.0 1.0 0.00 0.00 0.00 96 1012.0
20260906033057 73 54 0.0 2.0 0.00 0.00 0.00 96 1012.0
20260906031602 73 85 0.0 2.0 0.00 0.00 0.00 96 1012.0
20260906030056 73 55 0.0 0.0 0.00 0.00 0.00 96 1012.1
20260906024555 73 30 0.0 0.0 0.00 0.00 0.00 96 1012.2
20260906023054 73 30 0.0 1.0 0.00 0.00 0.00 95 1012.2
20260906021554 74 20 0.0 0.0 0.00 0.00 0.00 95 1012.1
20260906020101 74 20 0.0 0.0 0.00 0.00 0.00 95 1012.2
20260906014553 74 20 0.0 0.0 0.00 0.00 0.00 95 1012.0
20260906013052 74 65 0.0 0.0 0.00 0.00 0.00 95 1011.8
20260906011551 74 65 0.0 0.0 0.00 0.00 0.00 95 1011.6
20260906010051 75 65 0.0 1.0 0.00 0.00 0.00 95 1011.4
20260906004551 75 63 0.0 1.0 0.00 0.00 0.00 95 1011.3
20260906003050 74 55 0.0 0.0 0.00 0.00 0.00 94 1011.0
20260906001549 75 54 0.0 0.0 0.00 0.00 0.00 93 1011.1
20260906000049 75 54 0.0 0.0 0.00 0.00 0.00 91 1011.0
20260905234549 76 54 0.0 0.0 0.00 0.00 0.00 90 1011.2
20260905233050 76 53 0.0 1.0 0.00 0.00 0.00 89 1011.2
20260905231548 78 53 0.0 1.0 0.00 0.00 0.00 85 1010.9
20260905230052 81 105 0.0 1.0 0.00 0.00 0.00 83 1010.9
20260905224601 81 105 0.0 1.0 0.00 0.00 0.00 80 1010.5
20260905223045 81 105 0.0 0.0 0.00 0.00 0.00 80 1010.6
20260905221556 81 105 0.0 0.0 0.00 0.00 0.00 80 1010.5
20260905220050 82 20 0.0 3.0 0.00 0.00 0.00 77 1010.3
20260905214545 83 99 0.0 3.0 0.00 0.00 0.00 76 1010.3
20260905213042 84 84 0.0 2.0 0.00 0.00 0.00 74 1010.4
20260905211543 84 53 0.0 2.0 0.00 0.00 0.00 72 1010.5
20260905210040 84 76 0.0 3.0 0.00 0.00 0.00 72 1010.5
20260905204538 84 34 0.0 3.0 0.00 0.00 0.00 73 1010.8
20260905203045 85 214 0.0 2.0 0.00 0.00 0.00 70 1010.8
20260905201541 86 45 0.0 4.0 0.00 0.00 0.00 67 1010.8
20260905200043 87 51 0.0 4.0 0.00 0.00 0.00 65 1011.0
20260905194534 87 58 0.0 3.0 0.00 0.00 0.00 64 1011.2
20260905193033 86 67 0.0 1.0 0.00 0.00 0.00 66 1011.5
20260905191533 87 61 0.0 2.0 0.00 0.00 0.00 69 1011.7
20260905190031 86 96 0.0 2.0 0.00 0.00 0.00 66 1011.9
20260905184533 86 68 0.0 0.0 0.00 0.00 0.00 66 1012.0
20260905183027 85 288 0.0 1.0 0.00 0.00 0.00 68 1012.2
20260905181527 84 60 0.0 2.0 0.00 0.00 0.00 71 1012.4
20260905180027 82 43 0.0 0.0 0.00 0.00 0.00 73 1012.4
20260905174534 82 283 0.0 0.0 0.00 0.00 0.00 74 1012.1
20260905173028 82 283 0.0 0.0 0.00 0.00 0.00 72 1012.2
20260905171535 83 283 0.0 0.0 0.00 0.00 0.00 70 1012.2
20260905170023 85 283 0.0 1.0 0.00 0.00 0.00 69 1012.4
20260905164530 85 262 0.0 1.0 0.00 0.00 0.00 65 1012.4
20260905163020 84 270 0.0 1.0 0.00 0.00 0.00 68 1012.4